Location: Mitty Observatory
(35.9148°N, 88.8847°W)
Time: 03:42:30
(UTC-06:00)

LightSail 2 - Visible Passes

Search period start: 14 November 2019 00:00
Search period end: 24 November 2019 00:00
Orbit: 701 x 726 km, 24.0° (Epoch: 13 November)

Date Brightness Start Highest point End Pass type
(mag) Time Alt. Az. Time Alt. Az. Time Alt. Az.
14 Nov 6.9 04:43:59 18° SSW 04:45:44 21° S 04:49:38 10° SE visible
15 Nov 7.3 03:49:43 18° SSE 03:49:43 18° SSE 03:51:54 10° SE visible
15 Nov 7.2 05:29:30 10° SW 05:32:53 18° S 05:36:17 10° SSE visible
16 Nov 6.9 04:34:26 19° SSW 04:35:09 19° S 04:38:49 10° SE visible
17 Nov 7.6 03:40:08 14° SE 03:40:08 14° SE 03:41:14 10° SE visible
17 Nov 7.4 05:19:45 10° SW 05:22:15 14° SSW 05:24:46 10° SSE visible
18 Nov 7.2 04:24:49 16° S 04:24:49 16° S 04:27:38 10° SSE visible
20 Nov 7.6 04:15:12 11° S 04:15:12 11° S 04:15:39 10° S visible
